Voltar ao catálogo

STARLINK-32896

AtivoComunicaçõesVLEO
NORAD 62959·PAYLOAD·🇺🇸 United States

Lançado Feb 11, 2025 de Vandenberg Space Force Base

Loading…

Próximas Passagens (próximas 24 horas)

TLE

AtualizadoSource: CelesTrak SupGP

Época: Sep 14, 2026, 21:15 UTC

1 62959C 25029M   26257.88590278  .00000712  00000+0  21030-4 0  2574
2 62959  53.1590  72.2995 0001262  83.5563 273.5273 15.34378269    19

Acompanhe STARLINK-32896 em tempo real com AllMySat

Download on the App Store